Overview Statistics Trail Chart Weather Telemetry Raw packets
 

This is the latest recevied weather packets stored in our database for station/object GBTWP-2. If no packets are shown the sender has not sent any weather packets the latest 10 day(s).

<< 110 111 112 113 114 115 >>
Time Temp. Humidity Pressure Rain* Wind** Luminosity Snow
1787842620 22.78° C 74% 1017.3 hPa 0 mm - 503 W/m² -
1787842320 22.22° C 75% 1017.1 hPa 0 mm - 482 W/m² -
1787842020 22.78° C 74% 1017 hPa 0 mm - 517 W/m² -
1787841720 22.22° C 75% 1017 hPa 0 mm - 456 W/m² -
1787841418 22.22° C 75% 1016.9 hPa 0 mm - 178 W/m² -
1787841120 22.22° C 76% 1017 hPa 0 mm - 440 W/m² -
1787840824 21.67° C 77% 1016.9 hPa 0 mm - 430 W/m² -
1787840520 21.67° C 78% 1016.9 hPa 0 mm - 100 W/m² -
1787840220 21.67° C 77% 1017 hPa 0 mm - 106 W/m² -
1787839920 21.67° C 78% 1017 hPa 0 mm - 341 W/m² -
1787839620 21.67° C 78% 1016.9 hPa 0 mm - 410 W/m² -
1787839320 21.11° C 78% 1016.9 hPa 0 mm - 83 W/m² -
1787839020 21.67° C 78% 1016.7 hPa 0 mm - 343 W/m² -
1787838720 21.67° C 79% 1016.6 hPa 0 mm - 288 W/m² -
1787838420 21.11° C 80% 1016.8 hPa 0 mm - 309 W/m² -
1787838120 21.11° C 80% 1016.8 hPa 0 mm - 283 W/m² -
1787837820 21.11° C 80% 1016.7 hPa 0 mm - 244 W/m² -
1787837520 20.56° C 82% 1016.7 hPa 0 mm - 204 W/m² -
1787837221 20.56° C 82% 1016.6 hPa 0 mm - 174 W/m² -
1787836920 20.56° C 83% 1016.7 hPa 0 mm - 153 W/m² -
1787836620 20° C 84% 1016.7 hPa 0 mm - 135 W/m² -
1787836320 20° C 85% 1016.9 hPa 0 mm - 122 W/m² -
1787836020 20° C 86% 1016.9 hPa 0 mm - 115 W/m² -
1787835720 20° C 86% 1016.7 hPa 0 mm - 104 W/m² -
1787835420 20° C 86% 1016.9 hPa 0 mm - 96 W/m² -

* Rain latest hour (hover to see other rain measurements)
** Current wind speed in m/s (hover to see current wind gust speed)